Weather observations for the past three days for
Fort Polk, Polk AAF Ft Polk
Imperial (Metric)
Date Time (cdt) Wind (mph) Vis. (mi.) Weather Sky Cond. Temperature (ºF) Relative Humidity Wind Chill (°F) Heat Index (°F) Pressure Precipitation (in)
Air Dwpt 6 hour altimeter (in) sea level (mb) 1 hr 3 hr 6 hr
Max. Min.
20 04:55 NE 5 10.00 A Few Clouds FEW017 75.9 73 91% 76 30.07 1018.2
20 03:55 NE 7 10.00 Partly Cloudy SCT026 76.5 72.9 89% 77 30.05 1017.5
20 02:55 E 7 10.00 Partly Cloudy SCT290 77.4 73 87% 79 30.05 1017.5
20 01:55 E 9 10.00 Fair CLR 77.7 73.2 86% 80 30.05 1017.5
20 00:55 E 9 10.00 Fair CLR 78.6 72.7 87.3 78.6 82% 82 30.05 1017.5
19 23:55 E 9 G 18 10.00 A Few Clouds FEW280 79.7 72.9 80% 84 30.05 1017.5
19 22:55 E 10 G 21 10.00 A Few Clouds FEW260 FEW280 80.4 72.5 77% 85 30.05 1017.5
19 21:55 E 12 G 17 10.00 Mostly Cloudy FEW070 SCT260 BKN280 81.5 72.7 75% 86 30.04 1017.1
19 20:55 E 13 G 16 10.00 Mostly Cloudy FEW055 BKN220 83.5 73.4 72% 90 30.02 1016.5
19 19:55 NE 7 9.00 Mostly Cloudy SCT080 SCT100 BKN250 85.5 74.5 70% 94 29.99 1015.5
19 18:55 NE 8 G 20 9.00 Overcast FEW037 BKN230 OVC280 87.1 73.8 91.6 86.5 65% 95 29.98 1015.1
19 17:55 NE 13 G 24 10.00 Overcast BKN039 BKN140 OVC170 89.2 73.4 60% 98 29.97 1014.8
19 16:55 NE 14 G 17 10.00 Partly Cloudy SCT041 SCT075 91.2 73.8 57% 101 29.96 1014.4
19 15:55 E 9 10.00 Partly Cloudy FEW040 SCT065 SCT240 90.3 73.4 58% 99 29.97 1014.8
19 14:55 E 13 G 16 10.00 Mostly Cloudy FEW040 SCT046 BKN220 88.7 73.4 61% 97 29.98 1015.1
19 13:55 E 9 10.00 Mostly Cloudy BKN030 BKN042 86.5 73.8 66% 95 30 1015.8
19 12:55 E 9 10.00 Mostly Cloudy BKN028 BKN240 87.3 74.8 88.2 75 67% 97 30.01 1016.1
19 11:55 E 9 G 21 10.00 Partly Cloudy FEW025 SCT250 86.9 73.6 65% 95 30 1015.8
19 10:55 NE 12 G 17 10.00 Mostly Cloudy BKN020 BKN240 82.4 73.6 75% 88 30 1015.8
19 09:55 NE 12 10.00 Mostly Cloudy SCT017 BKN190 82.4 73.9 76% 89 30 1015.8
19 08:55 NE 10 10.00 Mostly Cloudy FEW160 BKN200 77.7 73.2 86% 80 29.98 1015.2
19 07:55 NE 8 10.00 Mostly Cloudy BKN180 76.1 72.9 90% 76 29.97 1014.8
19 06:55 NE 7 10.00 Overcast OVC130 75.2 72 76.5 74.5 90% 75 29.94 1013.8 0.02
19 05:55 NE 6 10.00 Overcast OVC140 75 71.8 90% 74 29.93 1013.4
19 04:55 NE 7 7.00 A Few Clouds FEW090 74.5 72.3 93% 29.92 1013.1 0.02
19 03:55 NE 7 8.00 Mostly Cloudy BKN100 BKN130 75.9 72.1 88% 76 29.91 1012.8
19 02:55 E 8 10.00 Mostly Cloudy FEW095 BKN160 76.3 72.1 87% 77 29.91 1012.7
19 01:55 E 7 10.00 Partly Cloudy SCT150 SCT210 76.3 72.7 89% 77 29.91 1012.7
19 00:55 E 6 9.00 Fair CLR 76.5 73.9 80.4 76.3 92% 77 29.91 1012.7 0.01
18 23:55 NE 6 10.00 Light Rain BKN140 BKN170 76.5 74.5 94% 77 29.91 1012.7
18 22:55 E 3 10.00 Light Rain FEW160 76.5 74.3 93% 77 29.92 1013.1 0.01
18 21:55 E 7 8.00 Light Rain FEW012 FEW028 SCT055 SCT075 SCT140 77.2 74.3 91% 79 29.93 1013.4
18 20:55 E 6 10.00 Overcast OVC015 78.6 73.9 86% 82 29.92 1013.1
18 19:55 E 6 8.00 Mostly Cloudy SCT017 BKN180 79.3 73.2 82% 83 29.92 1013.1
18 18:55 E 6 9.00 Mostly Cloudy SCT021 BKN210 80.6 73.8 87.1 80.6 80% 85 29.92 1013.1
18 17:55 E 12 9.00 Overcast SCT022 SCT045 OVC220 81.7 72.9 75% 87 29.91 1012.8
18 16:55 E 13 G 17 10.00 Overcast FEW090 OVC150 82.8 72.3 71% 88 29.9 1012.4
18 15:55 E 8 G 17 9.00 Overcast SCT026 BKN060 OVC100 83.8 73.8 72% 91 29.9 1012.4
18 14:55 E 9 G 17 10.00 Overcast FEW029 FEW035 BKN100 OVC140 84.4 73.4 70% 91 29.9 1012.4
18 13:55 E 6 10.00 Overcast SCT027 BKN034 BKN070 OVC120 82.4 76.6 83% 91 29.91 1012.8
18 13:10 E 9 10.00 Overcast FEW027 SCT032 SCT041 BKN049 OVC260 86 75.2 70% 95 29.91 1012.7
18 12:55 E 10 G 17 10.00 Mostly Cloudy SCT025 BKN029 BKN260 86.4 73.9 86.7 75.7 67% 94 29.91 1012.7
18 11:55 E 7 10.00 Mostly Cloudy BKN022 BKN027 85.5 75.7 73% 95 29.92 1013.1
18 10:55 E 8 10.00 Overcast SCT017 OVC140 82.4 75.2 79% 89 29.91 1012.8
18 09:55 E 9 10.00 Overcast BKN013 OVC150 80.4 75 84% 86 29.91 1012.8
18 08:55 E 10 10.00 Overcast SCT011 OVC160 78.6 74.7 88% 82 29.91 1012.8
18 07:55 Vrbl 6 7.00 Overcast FEW010 OVC150 76.6 73.8 91% 77 29.9 1012.4
18 06:55 E 5 4.00 Fog/Mist SCT007 OVC100 75.7 73.6 75.7 75 93% 75 29.89 1012.1
18 06:40 Calm 7.00 Overcast SCT007 BKN100 OVC120 75.2 73.4 94% 74 29.89 1012.1
18 05:55 E 6 10.00 Overcast SCT007 OVC095 75.4 73.4 94% 74 29.88 1011.8
18 05:10 E 5 7.00 Overcast OVC100 75.2 73.4 94% 74 29.86 1011.0
18 04:55 E 5 8.00 Overcast BKN007 OVC110 75 73 94% 73 29.87 1011.4
18 04:40 E 6 10.00 Overcast BKN007 OVC110 75.2 73.4 94% 74 29.87 1011.4
18 04:20 E 6 10.00 Overcast BKN007 BKN110 OVC140 75.2 73.4 94% 74 29.87 1011.4
18 03:55 E 5 10.00 Overcast BKN110 OVC140 75.4 73.2 93% 74 29.87 1011.4
18 02:55 E 7 10.00 Partly Cloudy SCT008 75.4 73.2 93% 74 29.89 1012.1
18 02:40 E 6 10.00 Mostly Cloudy BKN008 75.2 73.4 94% 74 29.89 1012.1
18 01:55 E 5 10.00 Overcast OVC220 75.6 73 92% 75 29.89 1012.1
18 00:55 E 6 10.00 Mostly Cloudy SCT170 BKN230 75.6 72.3 77.7 75.4 90% 75 29.91 1012.8
17 23:55 E 5 10.00 Fair CLR 75.4 72.1 90% 75 29.93 1013.5
17 22:55 E 7 10.00 Fair CLR 75.4 72.9 92% 75 29.94 1013.8
17 21:55 E 6 10.00 Fair CLR 75.6 73.4 93% 75 29.93 1013.5
17 20:55 Calm 10.00 Mostly Cloudy FEW110 BKN230 76.3 73.4 91% 77 29.92 1013.1
17 19:55 E 6 9.00 Mostly Cloudy SCT150 BKN230 77 73.4 89% 78 29.92 1013.1
17 18:55 E 5 10.00 Partly Cloudy FEW150 SCT220 77.2 74.3 89.2 76.5 91% 79 29.91 1012.8 0.05
17 17:55 SE 10 9.00 Light Rain FEW009 FEW033 BKN055 BKN080 OVC110 76.8 74.3 92% 78 29.91 1012.8 0.05
17 16:55 SE 10 10.00 A Few Clouds FEW270 87.3 74.5 66% 96 29.89 1012.0
17 15:57 SE 14 G 22 10.00 Mostly Cloudy BKN029 BKN080 87.6 74.3 65% 97 29.9 1012.4
17 14:55 SE 10 9.00 Overcast SCT023 BKN037 OVC060 86.9 75.9 70% 97 29.89 1012.1
17 13:55 E 8 9.00 Overcast OVC023 82.9 73 72% 89 29.91 1012.6
17 12:55 E 9 9.00 Mostly Cloudy SCT025 BKN230 82.9 70.9 67% 87 29.92 1013.7
17 11:55 SE 6 9.00 Mostly Cloudy BKN220 79.9 70 72% 83 29.93 1013.5
17 10:55 SE 5 9.00 Mostly Cloudy BKN220 79 70 74% 82 29.94 1013.7
17 09:55 SE 8 9.00 Mostly Cloudy FEW018 BKN220 77.9 70.9 79% 80 29.94 1013.7
17 07:55 SE 13 9.00 Partly Cloudy SCT011 78.8 74.5 87% 82 29.93 1013.4
17 06:55 SE 7 8.00 Overcast OVC003 78.1 76.5 78.1 75.7 95% 81 29.91 1012.7
17 05:55 E 6 10.00 Overcast OVC005 77.7 76.1 95% 80 29.9 1012.4
Date Time (cdt) Wind (mph) Vis. (mi.) Weather Sky Cond. Air Dwpt Max. Min. Relative Humidity Wind Chill (°F) Heat Index (°F) altimeter (in) sea level (mb) 1 hr 3 hr 6 hr
6 hour
Temperature (ºF) Pressure Precipitation (in)